Location: Gull Harbor
(47.1000°N, 122.9000°W)
Time: 23:09:09
(UTC-08:00)

OTV 5 (USA 277) - Visible Passes

Search period start: 23 January 2019 00:00
Search period end: 02 February 2019 00:00
Orbit: 339 x 349 km, 54.5° (Epoch: 15 January)

Date Brightness Start Highest point End Pass type
(mag) Time Alt. Az. Time Alt. Az. Time Alt. Az.
23 Jan ? 06:54:12 10° SSE 06:55:27 12° SE 06:56:42 10° ESE visible
25 Jan ? 06:06:48 10° SSE 06:07:54 12° SE 06:09:00 10° ESE visible
26 Jan ? 06:28:37 10° SSW 06:31:15 31° SE 06:33:54 10° ENE visible
27 Jan ? 05:19:25 10° SSE 05:20:21 11° SE 05:21:17 10° ESE visible
27 Jan ? 06:51:54 10° WSW 06:54:49 89° NNW 06:57:45 10° ENE visible
28 Jan ? 05:42:58 26° SSE 05:43:42 30° SE 05:46:19 10° ENE visible
29 Jan ? 06:06:22 41° SW 06:07:14 88° SSE 06:10:11 10° ENE visible
30 Jan ? 04:58:08 14° E 04:58:08 14° E 04:58:44 10° ENE visible
30 Jan ? 06:29:35 23° W 06:30:59 39° NNW 06:33:46 10° NE visible
31 Jan ? 05:21:13 25° ENE 05:21:13 25° ENE 05:22:36 10° ENE visible
31 Jan ? 06:52:39 11° WNW 06:54:52 24° NNW 06:57:20 10° NE visible
01 Feb ? 05:44:11 32° NNE 05:44:11 32° NNE 05:46:12 10° NE visible
